Location: Overspoor
(51.4747°N, 5.6641°E)
Time: 01:54:55
(UTC+02:00)

DUCHIFAT 1 - Pass Details

Date: 02 July 2022
Orbit: 580 x 596 km, 98.0° (Epoch: 09 August)

Event Time Altitude Azimuth Distance (km) Brightness Sun altitude
Rises 02:54:33 0° 31° (NNE) 2,846 ? -13.8°
Reaches altitude 10° 02:57:56 10° 60° (ENE) 1,940 ? -13.6°
Maximum altitude 02:59:50 13° 87° (E) 1,762 ? -13.5°
Drops below altitude 10° 03:01:44 10° 114° (ESE) 1,936 ? -13.4°
Enters shadow 03:04:33 - 140° (SE) 2,663 ? -13.3°
